Flag for Germany Weather past 2 weeks in Schorndorf, Baden-Württemberg, Germany

Now
43 °F

Overcast.


Feels Like: 38 °F
Forecast: 35 / 44 °F
Wind: 7 mph from Southwest

Location: Stuttgart-Echterdingen

Current Time: Dec 20, 2014 at 4:37:56 PM

Latest Report: Dec 20, 2014 at 4:00 PM


Visibility: 38 mi

Pressure: 30.25 "Hg

Humidity: 66%

Dew point: 32 °F

Location of SchorndorfLocation

Historic Weather in Schorndorf — Graph

°F

Schorndorf temperature yesterday

Maximum temperature yesterday: 53 °F (at 12:00 AM)
Minimum temperature yesterday: 47 °F (at 11:00 PM)
Average temperature yesterday: 51 °F

Past Weeks' High & Low Weather Summary

 TemperatureHumidityPressure
High54 °F (Dec 18, 9:00 PM)98% (Dec 16, 6:00 AM)30.48 "Hg (Dec 16, 6:00 AM)
Low29 °F (Dec 9, 3:00 AM)55% (Dec 12, 1:00 PM)29.76 "Hg (Dec 12, 7:00 PM)
Average41 °F84%30.10 "Hg
* Reported Dec 5 3:00 PM — Dec 20 3:00 PM, Schorndorf, Weather by CustomWeather, © 2014

Note: Actual official high and low records may vary slightly from our data, if they occured in-between our weather recording intervals... More about our weather records

Advertising

Schorndorf weather history for previous 24 hours

 ConditionsComfort  
Time TempWeatherWind HumidityBarometerVisibility
3:00 PM
Dec 20
43 °FOvercast.7 mph63%30.26 "Hg37 mi
2:00 PM43 °FOvercast.5 mph64%30.28 "Hg37 mi
1:00 PM43 °FOvercast.6 mph69%30.29 "Hg37 mi
12:00 PM42 °FOvercast.5 mph66%30.32 "Hg37 mi
11:00 AM40 °FOvercast.3 mph73%30.35 "Hg34 mi
9:00 AM38 °FScattered clouds.3 mph78%30.35 "Hg34 mi
8:00 AM36 °FPassing clouds.1 mph82%30.35 "Hg28 mi
7:00 AM39 °FPassing clouds.6 mph77%30.33 "Hg25 mi
6:00 AM38 °FPassing clouds.2 mph88%30.33 "Hg25 mi
5:00 AM40 °FOvercast.2 mph86%30.31 "Hg25 mi
3:00 AM44 °FPassing clouds.2 mph78%30.28 "Hg25 mi
2:00 AM44 °FPassing clouds.5 mph78%30.25 "Hg25 mi
1:00 AM46 °FPassing clouds.9 mph77%30.24 "Hg25 mi
12:00 AM47 °FOvercast.7 mph84%30.21 "Hg19 mi
11:00 PM
Dec 19
47 °FLight rain. Overcast.7 mph83%30.17 "Hg19 mi
9:00 PM48 °FRain. Overcast.6 mph89%30.11 "Hg16 mi
8:00 PM50 °FLight rain. Overcast.6 mph79%30.07 "Hg31 mi
7:00 PM49 °FOvercast.7 mph80%30.06 "Hg37 mi
6:00 PM49 °FOvercast.7 mph80%30.05 "Hg37 mi
5:00 PM50 °FOvercast.7 mph78%30.07 "Hg37 mi
4:00 PM51 °FLight rain. Overcast.6 mph74%30.06 "Hg43 mi
Weather by CustomWeather, © 2014

See weather overviewHow to use our weather pages